FW0709 Weather Reports


time (UTC)temp
C
wind
direction
speed
KPH
gust
KPH
rain 1hr
cm
rain 24hr
cm
rain mn
cm
humidity
%
barometer
mb
20260507114520 11 263 9.7 27.4 0.00 0.00 0.00 49 1013.3
20260507113037 11 267 9.7 30.6 0.00 0.00 0.00 49 1013.3
20260507111519 11 263 8.0 25.7 0.00 0.00 0.00 47 1013.3
20260507110018 11 215 9.7 24.1 0.00 0.00 0.00 45 1013.3
20260507104514 11 244 12.9 29.0 0.00 0.00 0.00 44 1013.4
20260507103018 11 228 14.5 32.2 0.00 0.00 0.00 41 1013.3
20260507101517 10 258 6.4 22.5 0.00 0.00 0.00 41 1013.1
20260507100013 10 195 8.0 22.5 0.00 0.00 0.00 41 1013.3
20260507094511 10 275 8.0 30.6 0.00 0.00 0.00 39 1013.2
20260507093011 10 203 14.5 32.2 0.00 0.00 0.00 37 1013.1
20260507091510 10 169 24.1 33.8 0.00 0.00 0.00 37 1013.1
20260507090009 11 159 12.9 22.5 0.00 0.00 0.00 35 1013.4
20260507084507 9 167 14.5 25.7 0.00 0.00 0.00 39 1013.4
20260507083005 9 182 17.7 24.1 0.00 0.00 0.00 37 1013.5
20260507081506 9 166 17.7 29.0 0.00 0.00 0.00 38 1013.6
20260507080105 9 176 12.9 29.0 0.00 0.00 0.00 39 1013.7
20260507074603 8 182 4.8 12.9 0.00 0.00 0.00 45 1013.7
20260507073057 7 151 1.6 9.7 0.00 0.00 0.00 52 1013.7
20260507071550 6 173 6.4 11.3 0.00 0.00 0.00 52 1013.8
20260507070049 6 176 9.7 16.1 0.00 0.00 0.00 54 1014.0
20260507064548 6 161 6.4 12.9 0.00 0.00 0.00 57 1014.0
20260507063043 5 169 9.7 16.1 0.00 0.00 0.00 57 1013.9
20260507061540 5 163 16.1 17.7 0.00 0.00 0.00 58 1013.8
20260507060040 4 180 11.3 14.5 0.00 0.00 0.00 63 1013.7
20260507054531 3 149 4.8 11.3 0.00 0.00 0.00 66 1013.5
20260507053027 2 161 6.4 9.7 0.00 0.00 0.00 69 1013.6
20260507051523 2 170 8.0 12.9 0.00 0.00 0.00 71 1013.5
20260507050026 1 159 9.7 14.5 0.00 0.00 0.00 73 1013.5
20260507044516 1 157 8.0 12.9 0.00 0.00 0.00 75 1013.6
20260507043020 0 163 9.7 14.5 0.00 0.00 0.00 78 1013.5
20260507041509 0 157 4.8 11.3 0.00 0.00 0.00 78 1013.4
20260507040007 0 153 6.4 11.3 0.00 0.00 0.00 80 1013.3
20260507034506 -1 154 8.0 14.5 0.00 0.00 0.00 82 1013.4
20260507033001 -1 147 8.0 14.5 0.00 0.00 0.00 84 1013.4
20260507031558 -2 155 11.3 14.5 0.00 0.00 0.00 87 1013.5
20260507030056 -3 159 6.4 14.5 0.00 0.00 0.00 88 1013.4
20260507024555 -4 157 8.0 12.9 0.00 0.00 0.00 88 1013.5
20260507023103 -5 169 3.2 6.4 0.00 0.00 0.00 87 1013.4
20260507021549 -5 215 0.0 3.2 0.00 0.00 0.00 86 1013.4
20260507020051 -4 215 0.0 3.2 0.00 0.00 0.00 85 1013.3
20260507014544 -4 216 0.0 1.6 0.00 0.00 0.00 86 1013.4
20260507013043 -4 216 0.0 1.6 0.00 0.00 0.00 86 1013.3
20260507011546 -4 216 0.0 3.2 0.00 0.00 0.00 87 1013.4
20260507010041 -4 236 0.0 3.2 0.00 0.00 0.00 86 1013.3
20260507004541 -4 243 0.0 1.6 0.00 0.00 0.00 85 1013.4
20260507003038 -4 243 0.0 0.0 0.00 0.00 0.00 85 1013.2
20260507001604 -4 243 0.0 0.0 0.00 0.00 0.00 84 1013.3
20260507000041 -4 243 0.0 1.6 0.00 0.00 0.00 83 1013.2
20260506234533 -4 243 0.0 0.0 0.00 0.00 0.00 82 1013.0
20260506233031 -3 243 0.0 1.6 0.00 0.00 0.00 82 1012.9
20260506231530 -3 243 0.0 3.2 0.00 0.00 0.00 82 1013.0
20260506230045 -3 244 0.0 0.0 0.00 0.00 0.00 81 1013.0
20260506224526 -3 244 0.0 1.6 0.00 0.00 0.00 80 1013.0
20260506223029 -2 244 0.0 1.6 0.00 0.00 0.00 79 1012.9
20260506221520 -2 244 0.0 0.0 0.00 0.00 0.00 78 1013.0
20260506220017 -2 244 0.0 0.0 0.00 0.00 0.00 76 1012.8
20260506214514 -1 244 0.0 3.2 0.00 0.00 0.00 76 1012.7
20260506213010 -1 244 0.0 1.6 0.00 0.00 0.00 78 1012.6
20260506211507 -1 244 0.0 0.0 0.00 0.00 0.00 75 1012.4
20260506210007 0 244 0.0 0.0 0.00 0.00 0.00 72 1012.3
20260506204502 0 244 0.0 0.0 0.00 0.00 0.00 70 1012.2
20260506203001 0 244 0.0 0.0 0.00 0.00 0.00 68 1012.1
20260506201559 1 244 0.0 0.0 0.00 0.00 0.00 66 1012.0
20260506194601 3 244 0.0 0.0 0.00 0.00 0.00 62 1011.9
20260506193105 3 244 0.0 3.2 0.00 0.00 0.00 61 1011.9
20260506191556 4 244 0.0 6.4 0.00 0.00 0.00 60 1011.9
20260506190055 5 228 3.2 12.9 0.00 0.00 0.00 60 1011.8
20260506184554 5 238 1.6 11.3 0.00 0.00 0.00 59 1011.7
20260506183103 6 238 1.6 11.3 0.00 0.00 0.00 58 1011.6
20260506181555 6 246 3.2 14.5 0.00 0.00 0.00 56 1011.4
20260506180051 6 240 4.8 12.9 0.00 0.00 0.00 55 1011.2
20260506174548 7 251 3.2 16.1 0.00 0.00 0.00 53 1011.1
20260506173049 7 248 4.8 19.3 0.00 0.00 0.00 54 1010.9
20260506171545 7 335 1.6 14.5 0.00 0.00 0.00 53 1010.8
20260506170052 8 275 4.8 17.7 0.00 0.00 0.00 51 1010.7
20260506164555 8 259 6.4 17.7 0.00 0.00 0.00 50 1010.6
20260506163045 9 269 8.0 19.3 0.00 0.00 0.00 48 1010.5
20260506161540 9 271 11.3 19.3 0.00 0.00 0.00 48 1010.4
20260506160038 9 281 6.4 14.5 0.00 0.00 0.00 50 1010.3
20260506154539 9 261 1.6 16.1 0.00 0.00 0.00 50 1010.2
20260506153037 8 248 8.0 17.7 0.00 0.00 0.00 50 1010.2
20260506151539 9 300 4.8 20.9 0.00 0.00 0.00 48 1010.2
20260506150042 8 291 4.8 14.5 0.00 0.00 0.00 52 1010.2
20260506144536 8 266 11.3 24.1 0.00 0.00 0.00 50 1010.2
20260506143039 8 242 4.8 19.3 0.00 0.00 0.00 50 1010.2
20260506141541 9 269 6.4 22.5 0.00 0.00 0.00 48 1010.2
20260506140034 10 261 11.3 30.6 0.00 0.00 0.00 47 1010.2
20260506134631 10 273 8.0 22.5 0.00 0.00 0.00 49 1010.1
20260506133029 10 294 6.4 24.1 0.00 0.00 0.00 50 1010.1
20260506131528 8 305 8.0 25.7 0.00 0.00 0.00 53 1009.9
20260506130030 8 313 9.7 24.1 0.00 0.00 0.00 56 1009.8
20260506124528 8 327 16.1 30.6 0.00 0.00 0.00 55 1010.0
20260506123027 8 279 11.3 24.1 0.00 0.00 0.00 54 1009.9
20260506121524 7 321 12.9 24.1 0.00 0.00 0.00 56 1009.9
20260506120046 7 292 9.7 25.7 0.00 0.00 0.00 55 1009.9